Back to catalog

FENGYUN 1C DEB

LostSSO
NORAD 31079·DEBRIS·🇨🇳 China

Launched May 10, 1999 from Taiyuan Satellite Launch Center

Loading…

Next Passes (next 24 hours)

TLE

StaleSource: Space-Track

Epoch: Sep 10, 2015, 07:29 UTC

1 31079U 99025BFZ 15253.31222079  .00001357  00000-0  89508-3 0  9996
2 31079  99.0846 284.2475 0062121 103.4289 251.3901 14.02529851434435

Track FENGYUN 1C DEB in real time with AllMySat

Download on the App Store